OE8NDR-11 Weather Reports


Display with metric or nautical units.
time (UTC)temp
F
wind
direction
speed
MPH
gust
MPH
rain 1hr
in
rain 24hr
in
rain mn
in
humidity
%
barometer
mb
20260509175300 65 73 4.0 5.0 0.00 0.46 0.40 79 1016.7
20260509174800 65 63 3.0 5.0 0.00 0.46 0.40 79 1016.5
20260509174300 66 63 1.0 4.0 0.00 0.46 0.40 79 1016.5
20260509173800 66 16 0.0 0.0 0.00 0.46 0.40 78 1016.4
20260509173300 66 315 0.0 0.0 0.00 0.46 0.40 78 1016.5
20260509172800 66 296 1.0 3.0 0.00 0.46 0.40 78 1016.5
20260509172300 66 298 2.0 4.0 0.00 0.46 0.40 77 1016.6
20260509171800 66 298 2.0 4.0 0.00 0.46 0.40 78 1016.6
20260509171300 66 297 3.0 4.0 0.00 0.46 0.40 78 1016.7
20260509170800 66 300 3.0 5.0 0.00 0.46 0.40 78 1016.5
20260509170300 66 302 3.0 4.0 0.00 0.46 0.40 78 1016.6
20260509165800 67 325 3.0 5.0 0.00 0.46 0.40 77 1016.7
20260509165300 67 309 3.0 5.0 0.00 0.46 0.40 77 1016.6
20260509164800 67 331 3.0 5.0 0.00 0.46 0.40 77 1016.5
20260509164300 67 313 4.0 4.0 0.00 0.46 0.40 76 1016.5
20260509163800 67 297 4.0 4.0 0.00 0.46 0.40 75 1016.4
20260509163300 67 306 5.0 6.0 0.00 0.46 0.40 75 1016.4
20260509162800 68 321 5.0 6.0 0.00 0.46 0.40 75 1016.4
20260509162300 68 286 5.0 8.0 0.00 0.46 0.40 75 1016.4
20260509161800 68 294 4.0 8.0 0.00 0.46 0.40 75 1016.4
20260509161300 68 322 3.0 8.0 0.00 0.46 0.40 74 1016.4
20260509160800 68 299 2.0 3.0 0.00 0.46 0.40 74 1016.3
20260509160300 69 288 1.0 4.0 0.00 0.46 0.40 73 1016.4
20260509155800 68 159 1.0 2.0 0.00 0.46 0.40 73 1016.4
20260509155300 68 159 1.0 4.0 0.00 0.46 0.40 73 1016.4
20260509154800 68 180 1.0 2.0 0.00 0.46 0.40 72 1016.3
20260509154300 69 184 2.0 4.0 0.00 0.46 0.40 72 1016.3
20260509153800 69 234 3.0 4.0 0.00 0.46 0.40 72 1016.3
20260509153300 69 276 2.0 4.0 0.00 0.46 0.40 73 1016.2
20260509152800 68 261 2.0 4.0 0.00 0.46 0.40 73 1016.2
20260509152300 69 314 3.0 5.0 0.00 0.46 0.40 73 1016.2
20260509151800 69 317 2.0 5.0 0.00 0.46 0.40 73 1016.1
20260509151300 68 308 2.0 6.0 0.00 0.46 0.40 73 1016.1
20260509150800 68 333 3.0 5.0 0.00 0.46 0.40 73 1016.2
20260509150300 68 267 2.0 6.0 0.00 0.46 0.40 74 1016.3
20260509145800 67 259 3.0 7.0 0.00 0.46 0.40 74 1016.3
20260509145300 67 307 5.0 8.0 0.00 0.46 0.40 74 1016.2
20260509144800 68 268 5.0 8.0 0.00 0.46 0.40 73 1016.2
20260509144300 68 273 5.0 8.0 0.00 0.46 0.40 74 1016.3
20260509143800 68 260 5.0 9.0 0.00 0.46 0.40 74 1016.2
20260509143300 67 250 5.0 9.0 0.00 0.46 0.40 75 1016.2
20260509142800 67 275 6.0 10.0 0.00 0.46 0.40 74 1016.3
20260509142300 67 234 6.0 11.0 0.00 0.46 0.40 75 1016.3
20260509141800 67 255 6.0 10.0 0.00 0.46 0.40 75 1016.4
20260509141300 67 254 7.0 11.0 0.00 0.46 0.40 76 1016.4
20260509140800 67 279 8.0 11.0 0.00 0.46 0.40 76 1016.3
20260509140300 67 300 7.0 11.0 0.00 0.46 0.40 76 1016.2
20260509135800 68 273 6.0 10.0 0.00 0.46 0.40 77 1016.3
20260509135300 67 303 7.0 11.0 0.00 0.46 0.40 77 1016.3
20260509134800 67 253 7.0 11.0 0.00 0.46 0.40 77 1016.3
20260509134300 66 280 5.0 10.0 0.00 0.46 0.40 79 1016.3
20260509133800 66 213 2.0 6.0 0.00 0.46 0.40 80 1016.4
20260509133300 66 227 2.0 4.0 0.00 0.46 0.40 80 1016.4
20260509132800 66 180 3.0 5.0 0.00 0.46 0.40 81 1016.3
20260509132300 65 114 4.0 5.0 0.00 0.46 0.40 83 1016.3
20260509131800 65 132 5.0 7.0 0.00 0.46 0.40 82 1016.3
20260509131300 65 128 5.0 8.0 0.00 0.46 0.40 83 1016.2
20260509130801 65 134 6.0 9.0 0.00 0.46 0.40 83 1016.3
20260509130300 65 117 6.0 8.0 0.00 0.46 0.40 83 1016.2
20260509125800 65 109 6.0 8.0 0.00 0.46 0.40 83 1016.3
20260509125300 66 104 6.0 9.0 0.00 0.46 0.40 82 1016.3
20260509124800 66 131 7.0 8.0 0.00 0.46 0.40 82 1016.4
20260509124301 65 111 7.0 11.0 0.00 0.46 0.40 81 1016.3
20260509123801 66 114 6.0 9.0 0.00 0.46 0.40 80 1016.2
20260509123300 66 98 5.0 10.0 0.00 0.46 0.40 79 1016.2
20260509122801 66 87 3.0 6.0 0.00 0.46 0.40 79 1016.4
20260509122300 66 113 2.0 8.0 0.00 0.46 0.40 78 1016.4
20260509121801 67 155 3.0 3.0 0.00 0.46 0.40 80 1016.3
20260509121300 66 132 4.0 4.0 0.00 0.46 0.40 80 1016.3
20260509120801 66 206 5.0 5.0 0.00 0.46 0.40 77 1016.3
20260509120301 67 239 3.0 8.0 0.00 0.46 0.40 77 1016.3
20260509115801 67 269 2.0 7.0 0.00 0.46 0.40 76 1016.3
20260509115301 67 293 2.0 3.0 0.00 0.46 0.40 76 1016.4
20260509114801 67 222 2.0 4.0 0.00 0.46 0.40 76 1016.2
20260509114301 67 224 3.0 4.0 0.00 0.46 0.40 76 1016.2
20260509113801 67 317 2.0 5.0 0.00 0.46 0.40 76 1016.3
20260509113301 67 153 1.0 6.0 0.00 0.46 0.40 76 1016.3
20260509112801 67 246 0.0 1.0 0.00 0.46 0.40 77 1016.2
20260509112301 66 226 2.0 4.0 0.00 0.46 0.40 77 1016.1
20260509111801 66 198 2.0 5.0 0.00 0.46 0.40 77 1016.2
20260509111301 66 183 2.0 5.0 0.00 0.46 0.40 78 1016.1
20260509110801 66 199 3.0 6.0 0.00 0.46 0.40 78 1016.1
20260509110301 66 160 3.0 6.0 0.00 0.46 0.40 80 1016.1
20260509105801 65 134 3.0 7.0 0.00 0.46 0.40 79 1016.1
20260509105301 65 114 3.0 4.0 0.00 0.46 0.40 80 1016.1
20260509104801 65 104 3.0 4.0 0.00 0.46 0.40 79 1016.2
20260509104301 65 76 2.0 5.0 0.00 0.46 0.40 79 1016.2
20260509103801 65 337 2.0 3.0 0.00 0.46 0.40 80 1016.2
20260509103301 65 351 2.0 5.0 0.00 0.46 0.40 80 1016.2
20260509102801 65 26 1.0 4.0 0.00 0.46 0.40 82 1016.2
20260509102301 65 178 1.0 2.0 0.00 0.46 0.40 83 1016.2
20260509101801 65 175 1.0 3.0 0.00 0.46 0.40 84 1016.2
20260509101301 64 101 1.0 3.0 0.00 0.46 0.40 85 1016.1
20260509100801 64 101 2.0 4.0 0.00 0.46 0.40 85 1016.2
20260509100301 64 112 2.0 4.0 0.00 0.46 0.40 85 1016.2
20260509095801 64 111 3.0 4.0 0.00 0.46 0.40 85 1016.2
20260509095301 64 71 2.0 4.0 0.00 0.46 0.40 86 1016.2
20260509094801 63 105 1.0 2.0 0.00 0.46 0.40 86 1016.3
20260509094301 63 130 2.0 3.0 0.00 0.46 0.40 86 1016.4
20260509093801 63 130 2.0 5.0 0.00 0.46 0.40 86 1016.4
20260509093301 63 176 3.0 6.0 0.00 0.46 0.40 87 1016.4
20260509092801 63 159 3.0 6.0 0.00 0.46 0.40 88 1016.5
20260509092301 63 73 3.0 5.0 0.00 0.46 0.40 89 1016.3
20260509091801 62 57 3.0 5.0 0.00 0.46 0.40 89 1016.3
20260509091301 62 106 2.0 6.0 0.00 0.46 0.40 90 1016.5
20260509090801 61 111 2.0 4.0 0.00 0.46 0.40 90 1016.4
20260509090301 61 117 2.0 4.0 0.00 0.46 0.40 90 1016.5
20260509085801 61 119 2.0 3.0 0.00 0.46 0.40 90 1016.5
20260509085301 61 145 3.0 4.0 0.00 0.46 0.40 91 1016.5
20260509084801 60 65 3.0 4.0 0.00 0.46 0.40 91 1016.4
20260509084301 60 80 2.0 4.0 0.00 0.46 0.40 92 1016.5
20260509083801 60 85 3.0 4.0 0.00 0.46 0.40 91 1016.6
20260509083301 60 95 4.0 7.0 0.00 0.46 0.40 92 1016.4
20260509082801 61 101 2.0 6.0 0.00 0.46 0.40 92 1016.5
20260509082301 61 85 2.0 3.0 0.00 0.46 0.40 92 1016.5
20260509081801 60 98 2.0 6.0 0.00 0.46 0.40 93 1016.4
20260509081301 60 106 2.0 4.0 0.00 0.46 0.40 92 1016.3
20260509080801 60 107 2.0 4.0 0.00 0.46 0.40 92 1016.4
20260509080301 59 78 2.0 4.0 0.00 0.46 0.40 93 1016.3
20260509075801 59 147 2.0 4.0 0.00 0.46 0.40 93 1016.3
20260509075301 59 108 3.0 4.0 0.00 0.46 0.40 93 1016.2
20260509074801 59 90 3.0 3.0 0.00 0.46 0.40 93 1016.2
20260509074301 59 102 2.0 3.0 0.00 0.46 0.40 93 1016.2
20260509073801 58 98 2.0 3.0 0.00 0.46 0.40 94 1016.2
20260509073301 58 109 2.0 3.0 0.00 0.46 0.40 94 1016.3
20260509072801 58 109 2.0 3.0 0.00 0.46 0.40 94 1016.2
20260509072301 58 111 2.0 3.0 0.00 0.46 0.40 94 1016.1
20260509071801 58 111 2.0 3.0 0.00 0.46 0.40 94 1016.1
20260509071301 58 111 2.0 3.0 0.00 0.46 0.40 94 1016.1
20260509070801 58 130 2.0 3.0 0.00 0.46 0.40 94 1016.1
20260509070301 58 130 2.0 3.0 0.00 0.46 0.40 94 1016.0
20260509065801 58 157 1.0 2.0 0.00 0.46 0.40 94 1016.1
20260509065305 58 158 1.0 2.0 0.00 0.46 0.40 94 1016.1
20260509064801 58 158 1.0 4.0 0.00 0.46 0.40 94 1016.0
20260509064301 58 160 1.0 2.0 0.00 0.46 0.40 94 1016.0
20260509063801 58 77 1.0 2.0 0.00 0.46 0.40 94 1016.1
20260509063301 58 77 1.0 2.0 0.00 0.46 0.40 94 1015.9
20260509062801 58 76 1.0 3.0 0.00 0.46 0.40 94 1015.9
20260509062301 57 76 1.0 3.0 0.00 0.46 0.40 94 1015.8
20260509061801 57 60 1.0 2.0 0.00 0.46 0.40 94 1015.9
20260509061301 57 59 2.0 3.0 0.00 0.46 0.40 94 1015.9
20260509060801 57 58 3.0 4.0 0.00 0.46 0.40 94 1015.8
20260509060301 57 49 1.0 4.0 0.00 0.46 0.40 94 1015.7
20260509055801 57 300 1.0 2.0 0.00 0.46 0.40 94 1015.8
20260509055301 57 249 2.0 3.0 0.00 0.46 0.40 94 1015.7
20260509054801 57 242 2.0 3.0 0.00 0.46 0.40 94 1015.6
20260509054301 57 254 2.0 4.0 0.00 0.46 0.40 94 1015.7
20260509053801 57 268 3.0 4.0 0.00 0.46 0.40 94 1015.7
20260509053301 57 298 3.0 6.0 0.00 0.46 0.40 94 1015.7
20260509052801 57 257 3.0 6.0 0.00 0.46 0.40 94 1015.7
20260509052301 57 285 2.0 4.0 0.00 0.46 0.40 94 1015.7
20260509051801 57 40 2.0 4.0 0.00 0.46 0.40 94 1015.5
20260509051301 57 342 1.0 3.0 0.00 0.46 0.40 94 1015.5
20260509050801 57 333 2.0 3.0 0.01 0.46 0.40 94 1015.6
20260509045801 57 313 3.0 5.0 0.01 0.46 0.40 94 1015.6
20260509045301 57 292 3.0 6.0 0.02 0.46 0.40 94 1015.5
20260509044801 57 271 3.0 4.0 0.02 0.46 0.40 94 1015.6
20260509044301 57 263 3.0 4.0 0.02 0.46 0.40 94 1015.6
20260509043801 57 256 3.0 4.0 0.04 0.46 0.40 94 1015.5
20260509043301 57 257 3.0 5.0 0.05 0.46 0.40 94 1015.4
20260509042801 57 255 3.0 4.0 0.06 0.46 0.40 94 1015.4
20260509042301 57 242 3.0 4.0 0.07 0.46 0.40 94 1015.4
20260509041801 57 249 3.0 4.0 0.08 0.46 0.40 94 1015.3
20260509041301 57 275 3.0 6.0 0.08 0.46 0.40 94 1015.3
20260509040801 57 277 4.0 6.0 0.08 0.45 0.39 94 1015.2
20260509040301 57 283 4.0 7.0 0.09 0.45 0.39 94 1015.3
20260509035802 57 287 3.0 6.0 0.10 0.45 0.39 94 1015.2
20260509035305 57 272 4.0 6.0 0.09 0.44 0.38 94 1015.2
20260509034802 57 310 4.0 6.0 0.10 0.44 0.38 94 1015.2
20260509034302 57 301 4.0 8.0 0.10 0.44 0.38 94 1015.1
20260509033801 57 309 4.0 7.0 0.09 0.42 0.36 94 1015.2
20260509033302 57 326 4.0 6.0 0.08 0.41 0.35 94 1015.1
20260509032802 57 293 5.0 7.0 0.08 0.40 0.34 94 1015.0
20260509032306 57 301 5.0 7.0 0.07 0.39 0.33 94 1015.1
20260509031802 57 284 4.0 6.0 0.07 0.38 0.32 94 1014.8
20260509031302 57 282 4.0 6.0 0.08 0.38 0.32 94 1014.7
20260509030802 57 272 4.0 5.0 0.07 0.37 0.31 94 1014.7
20260509030302 57 294 3.0 6.0 0.07 0.36 0.30 94 1014.6
20260509025802 57 286 3.0 4.0 0.07 0.35 0.29 94 1014.7
20260509025302 57 286 3.0 4.0 0.07 0.35 0.29 93 1014.7
20260509024802 57 299 3.0 4.0 0.07 0.34 0.28 93 1014.6
20260509024302 57 280 4.0 6.0 0.08 0.34 0.28 93 1014.5
20260509023802 57 302 4.0 8.0 0.07 0.33 0.27 93 1014.5
20260509023302 57 321 4.0 8.0 0.08 0.33 0.27 93 1014.6
20260509022802 57 304 4.0 5.0 0.07 0.32 0.26 93 1014.5
20260509022306 57 313 5.0 8.0 0.08 0.32 0.26 93 1014.6
20260509021802 57 284 5.0 7.0 0.08 0.31 0.25 93 1014.6
20260509021302 57 291 4.0 7.0 0.08 0.30 0.24 93 1014.6
20260509020802 57 306 4.0 5.0 0.08 0.30 0.24 93 1014.6
20260509020302 57 290 4.0 6.0 0.07 0.29 0.23 93 1014.7
20260509015802 57 296 2.0 5.0 0.09 0.29 0.23 93 1014.7
20260509015305 57 295 0.0 4.0 0.08 0.28 0.22 93 1014.8
20260509014802 57 297 0.0 0.0 0.08 0.27 0.21 93 1014.8
20260509014302 57 252 0.0 0.0 0.08 0.26 0.20 93 1014.8
20260509013802 57 252 0.0 0.0 0.08 0.26 0.20 93 1014.8
20260509013302 57 180 0.0 0.0 0.08 0.25 0.19 93 1014.9
20260509012802 57 180 0.0 0.0 0.08 0.25 0.19 93 1014.9
20260509012302 57 180 0.0 0.0 0.07 0.24 0.18 93 1014.9
20260509011802 57 180 0.0 0.0 0.07 0.23 0.17 93 1014.9
20260509011302 57 180 0.0 0.0 0.06 0.22 0.16 93 1014.9
20260509010802 57 180 1.0 2.0 0.06 0.22 0.16 92 1015.0
20260509010302 57 180 1.0 2.0 0.07 0.22 0.16 93 1015.0
20260509005802 57 180 1.0 2.0 0.06 0.20 0.14 92 1014.9
20260509005305 57 180 1.0 2.0 0.06 0.20 0.14 92 1015.0
20260509004802 57 180 2.0 3.0 0.05 0.19 0.13 92 1014.9
20260509004302 57 180 2.0 3.0 0.04 0.18 0.12 93 1014.9
20260509003802 57 178 2.0 2.0 0.04 0.18 0.12 93 1015.0
20260509003302 57 178 2.0 3.0 0.04 0.17 0.11 92 1015.1
20260509002802 57 177 1.0 3.0 0.04 0.17 0.11 92 1015.1
20260509002305 57 177 1.0 2.0 0.04 0.17 0.11 92 1015.1
20260509001802 57 177 1.0 3.0 0.04 0.16 0.10 92 1015.2
20260509001302 57 180 1.0 2.0 0.04 0.16 0.10 92 1015.1
20260509000802 57 180 2.0 4.0 0.04 0.16 0.10 92 1015.2
20260509000303 58 178 2.0 4.0 0.04 0.15 0.09 92 1015.2
20260508235802 57 153 2.0 3.0 0.05 0.15 0.09 92 1015.2
20260508235306 58 152 2.0 4.0 0.04 0.14 0.08 92 1015.2
20260508234802 58 178 2.0 3.0 0.05 0.14 0.08 92 1015.4
20260508234302 57 180 1.0 3.0 0.05 0.14 0.08 92 1015.4
20260508233802 57 178 0.0 2.0 0.06 0.14 0.08 92 1015.4
20260508233302 57 178 0.0 0.0 0.05 0.13 0.07 92 1015.5
20260508232802 57 178 1.0 2.0 0.05 0.13 0.07 92 1015.5
20260508232306 57 178 1.0 2.0 0.05 0.13 0.07 92 1015.6
20260508231802 57 178 1.0 2.0 0.05 0.12 0.06 91 1015.6
20260508231302 57 186 2.0 3.0 0.05 0.12 0.06 91 1015.6
20260508230802 57 185 1.0 3.0 0.06 0.12 0.06 91 1015.6
20260508230302 58 181 1.0 2.0 0.04 0.10 0.04 91 1015.7
20260508225802 58 181 1.0 2.0 0.04 0.10 0.04 91 1015.7
20260508225306 58 181 2.0 3.0 0.04 0.10 0.04 91 1015.7
20260508224802 58 171 2.0 4.0 0.04 0.09 0.03 91 1015.8
20260508224302 58 167 2.0 4.0 0.04 0.09 0.03 91 1015.8
20260508223802 58 167 3.0 4.0 0.04 0.08 0.02 91 1015.7
20260508223302 58 161 4.0 6.0 0.04 0.08 0.02 91 1015.7
20260508222802 58 172 5.0 6.0 0.04 0.08 0.02 91 1015.7
20260508222306 58 161 5.0 8.0 0.05 0.08 0.02 90 1015.6
20260508221802 58 154 5.0 8.0 0.04 0.07 0.01 90 1015.6
20260508221302 58 146 5.0 9.0 0.04 0.07 0.01 90 1015.6
20260508220802 58 168 4.0 8.0 0.04 0.06 0.00 90 1015.6
20260508220302 58 155 3.0 6.0 0.04 0.06 0.00 90 1015.4
20260508215802 58 161 3.0 4.0 0.04 0.06 0.06 90 1015.4
20260508215306 58 150 4.0 6.0 0.04 0.06 0.06 90 1015.4
20260508214802 58 166 4.0 6.0 0.05 0.06 0.06 90 1015.4
20260508214302 58 152 3.0 5.0 0.04 0.05 0.05 90 1015.3
20260508213802 58 140 4.0 6.0 0.04 0.04 0.04 89 1015.3
20260508213302 58 136 4.0 8.0 0.04 0.04 0.04 89 1015.3
20260508212802 58 139 4.0 7.0 0.04 0.04 0.04 89 1015.4
20260508212306 58 146 5.0 6.0 0.03 0.03 0.03 89 1015.4
20260508211802 58 155 5.0 7.0 0.03 0.03 0.03 88 1015.3
20260508211302 58 141 5.0 8.0 0.03 0.03 0.03 88 1015.4
20260508210802 59 159 4.0 8.0 0.02 0.02 0.02 88 1015.4
20260508210302 59 143 4.0 8.0 0.02 0.02 0.02 88 1015.4
20260508205802 59 127 4.0 8.0 0.02 0.02 0.02 88 1015.4
20260508205305 59 138 4.0 7.0 0.02 0.02 0.02 87 1015.5
20260508204802 59 140 5.0 8.0 0.01 0.01 0.01 87 1015.5
20260508204302 59 142 5.0 7.0 0.01 0.01 0.01 87 1015.5
20260508203802 59 149 6.0 9.0 0.00 0.00 0.00 87 1015.3
20260508203302 59 157 8.0 10.0 0.00 0.00 0.00 87 1015.4
20260508202802 59 143 8.0 12.0 0.00 0.00 0.00 87 1015.5
20260508202306 59 165 7.0 10.0 0.00 0.00 0.00 87 1015.3
20260508201802 59 159 8.0 11.0 0.00 0.00 0.00 87 1015.4
20260508201302 59 143 8.0 13.0 0.00 0.00 0.00 87 1015.3
20260508200802 59 157 9.0 15.0 0.00 0.00 0.00 87 1015.2
20260508200302 59 155 9.0 15.0 0.00 0.00 0.00 87 1015.2
20260508195802 60 173 8.0 13.0 0.00 0.00 0.00 88 1015.2
20260508195306 60 152 6.0 10.0 0.00 0.00 0.00 89 1015.2
20260508194802 60 138 6.0 9.0 0.00 0.00 0.00 89 1015.1
20260508194303 60 138 6.0 9.0 0.00 0.00 0.00 89 1015.1
20260508193802 60 142 6.0 9.0 0.00 0.00 0.00 89 1014.9
20260508193302 60 140 5.0 9.0 0.00 0.00 0.00 89 1014.8
20260508192802 60 129 4.0 8.0 0.00 0.00 0.00 89 1014.7
20260508192305 60 123 4.0 7.0 0.00 0.00 0.00 89 1014.7
20260508191802 61 131 4.0 5.0 0.00 0.00 0.00 89 1014.6
20260508191302 61 135 3.0 5.0 0.00 0.00 0.00 89 1014.6
20260508190802 61 131 4.0 5.0 0.00 0.00 0.00 89 1014.5
20260508190302 61 123 4.0 7.0 0.00 0.00 0.00 88 1014.5
20260508185803 61 140 4.0 7.0 0.00 0.00 0.00 88 1014.4
20260508185306 61 127 3.0 5.0 0.00 0.00 0.00 88 1014.4
20260508184803 61 123 4.0 5.0 0.00 0.00 0.00 87 1014.3
20260508184303 61 142 4.0 7.0 0.00 0.00 0.00 87 1014.3
20260508183803 61 124 4.0 7.0 0.00 0.00 0.00 86 1014.2
20260508183303 61 109 3.0 6.0 0.00 0.00 0.00 86 1014.1
20260508182803 61 116 2.0 4.0 0.00 0.00 0.00 85 1014.0
20260508182306 62 106 0.0 3.0 0.00 0.00 0.00 85 1013.9
20260508181803 62 71 0.0 0.0 0.00 0.00 0.00 84 1013.9
20260508181303 62 67 0.0 0.0 0.00 0.00 0.00 84 1013.8
20260508180803 62 66 0.0 0.0 0.00 0.00 0.00 83 1013.8
20260508180303 62 66 0.0 0.0 0.00 0.00 0.00 83 1013.7
20260508175803 62 66 0.0 0.0 0.00 0.00 0.00 83 1013.7